Time,TemperatureF,DewpointF,PressureIn,WindDirection,WindDirectionDegrees,WindSpeedMPH,WindSpeedGustMPH,Humidity,HourlyPrecipIn,Conditions,Clouds,dailyrainin,SoftwareType,DateUTC
2013-02-21 00:07:00,13.1,8.9,29.98,West,270,8.9,-999.0,83,-99.99,,,0.00,Acu-Link.com,2013-02-21 05:07:00,
2013-02-21 00:22:00,13.3,9.4,29.98,SW,225,10.4,-999.0,84,-99.99,,,0.00,Acu-Link.com,2013-02-21 05:22:00,
2013-02-21 00:37:00,13.3,9.7,29.98,NW,315,7.8,-999.0,85,-99.99,,,0.00,Acu-Link.com,2013-02-21 05:37:00,
2013-02-21 01:08:00,13.3,9.7,29.99,SW,225,4.7,-999.0,85,-99.99,,,0.00,Acu-Link.com,2013-02-21 06:08:00,
2013-02-21 01:23:00,13.3,10.2,29.99,West,270,6.3,-999.0,87,-99.99,,,0.00,Acu-Link.com,2013-02-21 06:23:00,
2013-02-21 01:38:00,13.3,9.9,29.98,West,270,6.8,-999.0,86,-99.99,,,0.00,Acu-Link.com,2013-02-21 06:38:00,
2013-02-21 01:53:00,13.3,9.9,29.98,West,270,10.9,-999.0,86,-99.99,,,0.00,Acu-Link.com,2013-02-21 06:53:00,
2013-02-21 02:09:00,13.3,9.9,29.99,WSW,247,9.4,-999.0,86,-99.99,,,0.00,Acu-Link.com,2013-02-21 07:09:00,
2013-02-21 02:24:00,13.3,10.4,29.98,West,270,9.4,-999.0,88,-99.99,,,0.00,Acu-Link.com,2013-02-21 07:24:00,
2013-02-21 02:39:00,13.3,10.2,29.98,WSW,247,13.5,-999.0,87,-99.99,,,0.00,Acu-Link.com,2013-02-21 07:39:00,
2013-02-21 02:54:00,13.3,10.4,29.97,West,270,6.8,-999.0,88,-99.99,,,0.00,Acu-Link.com,2013-02-21 07:54:00,
2013-02-21 03:09:00,13.3,10.4,29.97,West,270,10.4,-999.0,88,-99.99,,,0.00,Acu-Link.com,2013-02-21 08:09:00,
2013-02-21 03:25:00,13.3,10.7,29.97,West,270,8.3,-999.0,89,-99.99,,,0.00,Acu-Link.com,2013-02-21 08:25:00,
2013-02-21 03:40:00,13.3,10.7,29.98,West,270,9.9,-999.0,89,-99.99,,,0.00,Acu-Link.com,2013-02-21 08:40:00,
2013-02-21 03:55:00,13.3,10.7,29.98,NW,315,8.9,-999.0,89,-99.99,,,0.00,Acu-Link.com,2013-02-21 08:55:00,
2013-02-21 04:20:00,13.3,10.4,29.98,WNW,292,13.5,-999.0,88,-99.99,,,0.00,Acu-Link.com,2013-02-21 09:20:00,
2013-02-21 04:36:00,13.3,10.4,29.97,West,270,8.9,-999.0,88,-99.99,,,0.00,Acu-Link.com,2013-02-21 09:36:00,
2013-02-21 04:51:00,13.3,10.7,29.98,West,270,11.4,-999.0,89,-99.99,,,0.00,Acu-Link.com,2013-02-21 09:51:00,
2013-02-21 05:06:00,13.5,11.1,29.98,West,270,7.3,-999.0,90,-99.99,,,0.00,Acu-Link.com,2013-02-21 10:06:00,
2013-02-21 05:22:00,13.5,11.4,29.99,West,270,8.9,-999.0,91,-99.99,,,0.00,Acu-Link.com,2013-02-21 10:22:00,
2013-02-21 05:37:00,13.5,11.4,29.99,WNW,292,6.3,-999.0,91,-99.99,,,0.00,Acu-Link.com,2013-02-21 10:37:00,
2013-02-21 05:52:00,13.5,11.4,30.00,West,270,10.4,-999.0,91,-99.99,,,0.00,Acu-Link.com,2013-02-21 10:52:00,
2013-02-21 06:07:00,13.6,11.2,30.00,West,270,7.8,-999.0,90,-99.99,,,0.00,Acu-Link.com,2013-02-21 11:07:00,
2013-02-21 06:23:00,13.6,11.7,30.00,West,270,6.8,-999.0,92,-99.99,,,0.00,Acu-Link.com,2013-02-21 11:23:00,
2013-02-21 06:38:00,13.5,12.1,30.01,West,270,14.0,-999.0,94,-99.99,,,0.00,Acu-Link.com,2013-02-21 11:38:00,
2013-02-21 06:53:00,13.5,11.6,30.01,WNW,292,9.9,-999.0,92,-99.99,,,0.00,Acu-Link.com,2013-02-21 11:53:00,
2013-02-21 07:08:00,13.3,10.7,30.02,WSW,247,8.9,-999.0,89,-99.99,,,0.00,Acu-Link.com,2013-02-21 12:08:00,
2013-02-21 07:24:00,13.3,9.9,30.02,WNW,292,18.1,-999.0,86,-99.99,,,0.00,Acu-Link.com,2013-02-21 12:24:00,
2013-02-21 07:39:00,13.3,9.7,30.02,WSW,247,5.8,-999.0,85,-99.99,,,0.00,Acu-Link.com,2013-02-21 12:39:00,
2013-02-21 07:54:00,13.6,9.7,30.03,West,270,10.4,-999.0,84,-99.99,,,0.00,Acu-Link.com,2013-02-21 12:54:00,
2013-02-21 08:09:00,13.8,9.9,30.04,West,270,10.4,-999.0,84,-99.99,,,0.00,Acu-Link.com,2013-02-21 13:09:00,
2013-02-21 08:24:00,14.2,10.3,30.04,NNW,337,7.8,-999.0,84,-99.99,,,0.00,Acu-Link.com,2013-02-21 13:24:00,
2013-02-21 08:40:00,14.7,10.2,30.06,WSW,247,6.8,-999.0,82,-99.99,,,0.00,Acu-Link.com,2013-02-21 13:40:00,
2013-02-21 08:55:00,15.3,10.8,30.06,West,270,6.3,-999.0,82,-99.99,,,0.00,Acu-Link.com,2013-02-21 13:55:00,
2013-02-21 09:10:00,15.6,10.8,30.06,NW,315,8.9,-999.0,81,-99.99,,,0.00,Acu-Link.com,2013-02-21 14:10:00,
2013-02-21 09:25:00,15.8,11.0,30.07,WNW,292,7.3,-999.0,81,-99.99,,,0.00,Acu-Link.com,2013-02-21 14:25:00,
2013-02-21 09:40:00,16.5,11.7,30.07,West,270,6.8,-999.0,81,-99.99,,,0.00,Acu-Link.com,2013-02-21 14:40:00,
2013-02-21 09:56:00,16.5,11.7,30.09,South,180,10.4,-999.0,81,-99.99,,,0.00,Acu-Link.com,2013-02-21 14:56:00,
2013-02-21 10:11:00,16.9,12.1,30.08,ESE,112,9.9,-999.0,81,-99.99,,,0.00,Acu-Link.com,2013-02-21 15:11:00,
2013-02-21 10:26:00,16.9,12.4,30.07,WNW,292,8.9,-999.0,82,-99.99,,,0.00,Acu-Link.com,2013-02-21 15:26:00,
2013-02-21 10:41:00,17.1,12.6,30.08,SW,225,7.8,-999.0,82,-99.99,,,0.00,Acu-Link.com,2013-02-21 15:41:00,
2013-02-21 10:57:00,18.3,13.5,30.09,West,270,7.3,-999.0,81,-99.99,,,0.00,Acu-Link.com,2013-02-21 15:57:00,
2013-02-21 11:12:00,19.2,12.9,30.08,West,270,9.9,-999.0,76,-99.99,,,0.00,Acu-Link.com,2013-02-21 16:12:00,
2013-02-21 11:27:00,18.9,12.9,30.09,West,270,11.9,-999.0,77,-99.99,,,0.00,Acu-Link.com,2013-02-21 16:27:00,
2013-02-21 11:42:00,20.3,14.0,30.09,West,270,10.4,-999.0,76,-99.99,,,0.00,Acu-Link.com,2013-02-21 16:42:00,
2013-02-21 11:57:00,19.2,13.2,30.08,West,270,10.9,-999.0,77,-99.99,,,0.00,Acu-Link.com,2013-02-21 16:57:00,
2013-02-21 12:13:00,19.6,13.9,30.09,West,270,11.9,-999.0,78,-99.99,,,0.00,Acu-Link.com,2013-02-21 17:13:00,
2013-02-21 12:28:00,19.6,13.9,30.08,WNW,292,7.8,-999.0,78,-99.99,,,0.00,Acu-Link.com,2013-02-21 17:28:00,
2013-02-21 12:43:00,19.8,14.1,30.08,WNW,292,12.5,-999.0,78,-99.99,,,0.00,Acu-Link.com,2013-02-21 17:43:00,
2013-02-21 12:58:00,20.8,15.3,30.09,West,270,3.7,-999.0,79,-99.99,,,0.00,Acu-Link.com,2013-02-21 17:58:00,
2013-02-21 13:13:00,20.3,14.3,30.08,WNW,292,5.8,-999.0,77,-99.99,,,0.00,Acu-Link.com,2013-02-21 18:13:00,
2013-02-21 13:29:00,20.8,14.7,30.08,NW,315,7.3,-999.0,77,-99.99,,,0.00,Acu-Link.com,2013-02-21 18:29:00,
2013-02-21 13:44:00,21.0,14.9,30.08,West,270,10.9,-999.0,77,-99.99,,,0.00,Acu-Link.com,2013-02-21 18:44:00,
2013-02-21 13:59:00,20.8,15.0,30.08,West,270,10.4,-999.0,78,-99.99,,,0.00,Acu-Link.com,2013-02-21 18:59:00,
2013-02-21 14:15:00,20.3,14.8,30.09,West,270,6.3,-999.0,79,-99.99,,,0.00,Acu-Link.com,2013-02-21 19:15:00,
2013-02-21 14:30:00,19.9,14.5,30.09,West,270,8.9,-999.0,79,-99.99,,,0.00,Acu-Link.com,2013-02-21 19:30:00,
2013-02-21 14:45:00,20.1,14.9,30.10,West,270,11.9,-999.0,80,-99.99,,,0.00,Acu-Link.com,2013-02-21 19:45:00,
2013-02-21 15:00:00,20.3,14.8,30.10,West,270,8.3,-999.0,79,-99.99,,,0.00,Acu-Link.com,2013-02-21 20:00:00,
2013-02-21 15:16:00,20.7,15.2,30.10,WNW,292,5.8,-999.0,79,-99.99,,,0.00,Acu-Link.com,2013-02-21 20:16:00,
2013-02-21 15:31:00,20.3,14.8,30.10,West,270,7.3,-999.0,79,-99.99,,,0.00,Acu-Link.com,2013-02-21 20:31:00,
2013-02-21 15:46:00,20.8,15.3,30.10,West,270,4.7,-999.0,79,-99.99,,,0.00,Acu-Link.com,2013-02-21 20:46:00,
2013-02-21 16:01:00,20.8,15.3,30.08,West,270,5.3,-999.0,79,-99.99,,,0.00,Acu-Link.com,2013-02-21 21:01:00,
2013-02-21 16:16:00,20.7,15.2,30.10,NW,315,5.3,-999.0,79,-99.99,,,0.00,Acu-Link.com,2013-02-21 21:16:00,
2013-02-21 16:32:00,20.7,15.5,30.10,SW,225,2.2,-999.0,80,-99.99,,,0.00,Acu-Link.com,2013-02-21 21:32:00,
2013-02-21 16:47:00,20.8,15.6,30.12,West,270,3.7,-999.0,80,-99.99,,,0.00,Acu-Link.com,2013-02-21 21:47:00,
2013-02-21 17:02:00,20.8,15.6,30.13,NNW,337,4.7,-999.0,80,-99.99,,,0.00,Acu-Link.com,2013-02-21 22:02:00,
2013-02-21 17:17:00,19.6,15.3,30.12,West,270,4.2,-999.0,83,-99.99,,,0.00,Acu-Link.com,2013-02-21 22:17:00,
2013-02-21 17:32:00,19.4,15.1,30.14,NNW,337,3.7,-999.0,83,-99.99,,,0.00,Acu-Link.com,2013-02-21 22:32:00,
2013-02-21 17:48:00,18.3,14.8,30.14,West,270,2.7,-999.0,86,-99.99,,,0.00,Acu-Link.com,2013-02-21 22:48:00,
2013-02-21 18:03:00,17.6,14.7,30.17,SSW,202,0.0,-999.0,88,-99.99,,,0.00,Acu-Link.com,2013-02-21 23:03:00,
2013-02-21 18:18:00,16.9,14.5,30.16,WSW,247,1.7,-999.0,90,-99.99,,,0.00,Acu-Link.com,2013-02-21 23:18:00,
2013-02-21 18:33:00,15.8,13.6,30.17,SE,135,0.0,-999.0,91,-99.99,,,0.00,Acu-Link.com,2013-02-21 23:33:00,
2013-02-21 18:48:00,15.1,13.4,30.17,West,270,2.7,-999.0,93,-99.99,,,0.00,Acu-Link.com,2013-02-21 23:48:00,
2013-02-21 19:04:00,15.1,13.7,30.17,East,90,0.0,-999.0,94,-99.99,,,0.00,Acu-Link.com,2013-02-22 00:04:00,
2013-02-21 19:19:00,14.0,13.1,30.18,ESE,112,0.0,-999.0,96,-99.99,,,0.00,Acu-Link.com,2013-02-22 00:19:00,
2013-02-21 19:34:00,13.8,13.1,30.19,SE,135,0.0,-999.0,97,-99.99,,,0.00,Acu-Link.com,2013-02-22 00:34:00,
2013-02-21 19:49:00,13.5,13.0,30.19,SSE,157,0.0,-999.0,98,-99.99,,,0.00,Acu-Link.com,2013-02-22 00:49:00,
2013-02-21 20:05:00,13.3,12.8,30.20,ESE,112,0.0,-999.0,98,-99.99,,,0.00,Acu-Link.com,2013-02-22 01:05:00,
2013-02-21 20:20:00,13.1,12.9,30.19,ESE,112,0.0,-999.0,99,-99.99,,,0.00,Acu-Link.com,2013-02-22 01:20:00,
2013-02-21 20:35:00,12.9,12.7,30.19,SSE,157,0.0,-999.0,99,-99.99,,,0.00,Acu-Link.com,2013-02-22 01:35:00,
2013-02-21 20:50:00,12.9,12.7,30.18,ESE,112,1.7,-999.0,99,-99.99,,,0.00,Acu-Link.com,2013-02-22 01:50:00,
2013-02-21 21:05:00,13.3,13.1,30.17,ESE,112,2.2,-999.0,99,-99.99,,,0.00,Acu-Link.com,2013-02-22 02:05:00,
2013-02-21 21:21:00,13.8,13.3,30.16,NE,45,2.7,-999.0,98,-99.99,,,0.00,Acu-Link.com,2013-02-22 02:21:00,
2013-02-21 21:36:00,14.0,13.5,30.16,ESE,112,0.0,-999.0,98,-99.99,,,0.00,Acu-Link.com,2013-02-22 02:36:00,
2013-02-21 21:51:00,13.6,13.1,30.15,ESE,112,0.0,-999.0,98,-99.99,,,0.00,Acu-Link.com,2013-02-22 02:51:00,
2013-02-21 22:06:00,13.5,12.8,30.16,SE,135,1.7,-999.0,97,-99.99,,,0.00,Acu-Link.com,2013-02-22 03:06:00,
2013-02-21 22:21:00,13.1,12.4,30.16,ESE,112,2.2,-999.0,97,-99.99,,,0.00,Acu-Link.com,2013-02-22 03:21:00,
2013-02-21 22:37:00,13.3,12.6,30.15,ESE,112,2.2,-999.0,97,-99.99,,,0.00,Acu-Link.com,2013-02-22 03:37:00,
2013-02-21 22:52:00,14.2,13.3,30.14,East,90,2.2,-999.0,96,-99.99,,,0.00,Acu-Link.com,2013-02-22 03:52:00,
2013-02-21 23:07:00,15.3,13.6,30.14,SE,135,1.7,-999.0,93,-99.99,,,0.00,Acu-Link.com,2013-02-22 04:07:00,
2013-02-21 23:22:00,15.8,13.9,30.13,NE,45,1.7,-999.0,92,-99.99,,,0.00,Acu-Link.com,2013-02-22 04:22:00,
2013-02-21 23:37:00,16.2,13.8,30.12,NE,45,2.2,-999.0,90,-99.99,,,0.00,Acu-Link.com,2013-02-22 04:37:00,
2013-02-21 23:53:00,16.5,14.1,30.12,NNW,337,1.1,-999.0,90,-99.99,,,0.00,Acu-Link.com,2013-02-22 04:53:00,